Location: Laguna de la Cañada del Gallo
(40.3974°N, 5.2096°W)
Time: 06:58:10
(UTC+00:00)

Cosmos 1459 Rocket - Visible Passes

Search period start: 16 July 2024 00:00
Search period end: 26 July 2024 00:00
Orbit: 936 x 998 km, 83.0° (Epoch: 16 July)

Date Brightness Start Highest point End Pass type
(mag) Time Alt. Az. Time Alt. Az. Time Alt. Az.
16 Jul 5.1 00:16:17 30° E 00:17:01 31° E 00:22:26 10° NNE visible
16 Jul 4.7 02:00:47 36° WSW 02:02:01 40° WNW 02:07:57 10° N visible
17 Jul 4.3 00:39:14 52° ESE 00:39:47 53° E 00:45:56 10° NNE visible
17 Jul 5.4 02:23:44 21° W 02:25:19 24° WNW 02:30:18 10° NNW visible
17 Jul 6.1 23:17:41 12° E 23:18:29 13° E 23:21:04 10° NE visible
18 Jul 3.8 01:02:11 77° S 01:02:43 89° W 01:09:05 10° N visible
18 Jul 6.0 02:46:41 12° W 02:48:48 13° WNW 02:51:47 10° NW visible
18 Jul 5.5 23:40:37 23° E 23:41:03 23° E 23:45:51 10° NE visible
19 Jul 4.3 01:25:07 50° W 01:25:47 53° W 01:31:58 10° N visible
20 Jul 4.7 00:03:32 40° E 00:03:45 40° E 00:09:34 10° NNE visible
20 Jul 5.1 01:48:02 29° W 01:49:00 31° WNW 01:54:32 10° NNW visible
21 Jul 4.0 00:26:27 69° ESE 00:26:37 70° E 00:32:54 10° NNE visible
21 Jul 5.7 02:10:56 17° W 02:12:24 18° WNW 02:16:35 10° NNW visible
21 Jul 5.8 23:04:51 17° E 23:05:07 17° E 23:09:00 10° NE visible
22 Jul 4.0 00:49:21 69° W 00:49:36 70° W 00:55:55 10° N visible
22 Jul 5.1 23:27:44 30° E 23:27:45 30° E 23:33:06 10° NNE visible
23 Jul 4.7 01:12:14 40° W 01:12:44 40° WNW 01:18:39 10° N visible
23 Jul 4.3 23:50:37 52° E 23:50:37 52° E 23:56:37 10° NNE visible
24 Jul 5.4 01:35:06 23° W 01:36:02 24° WNW 01:41:01 10° NNW visible
24 Jul 6.0 22:29:00 12° E 22:29:14 12° E 22:31:36 10° ENE visible
25 Jul 3.9 00:13:29 89° NE 00:13:29 89° NE 00:19:46 10° N visible
25 Jul 6.0 01:57:58 13° W 01:59:31 14° WNW 02:02:33 10° NW visible
25 Jul 5.4 22:51:51 23° E 22:51:51 23° E 22:56:29 10° NE visible
